User: anonymous   Login
Location: Valdosta
(30.8330°N, 83.2790°W)
Time: 19:40:49
(UTC-05:00)
Language:

Uribyol 2 - Orbit

View from above orbital plane
View from above orbital plane
View from above satellite
View from above satellite

Ground track
Ground track

The orbit data is extracted from the following two-line orbital elements,

1 22828U 93061F   16039.88522357 +.00000100 +00000-0 +55500-4 0  9990
2 22828 098.7280 354.6211 0008973 300.8879 059.1420 14.30568233135030
Epoch (UTC): 08 February 2016 21:14:43
Eccentricity: 0.0008973
inclination: 98.7280°
perigee height: 783 km
apogee height: 796 km
right ascension of ascending node: 354.6211°
argument of perigee: 300.8879°
revolutions per day: 14.30568233
mean anomaly at epoch: 59.1420°
orbit number at epoch: 13503

The dashed part of the orbit path shows where the satellite is in the earth's shadow,  

DLR